STARLINK-11476, 62228

Orbit data source: Space-Track

STARLINK-11476, 62228 is a payload satellite owned by SpaceX/Seattle (US) in LEO that was launched on Thu, 05 Dec 2024 UTC via an FALCON 9 launch vehicle from the Air Force Western Test Range (AFWTR). Payload-class satellites include a variety of spacecraft equipped with specific instruments for various scientific and technological missions. These include communications satellites like Starlink; space stations such as the ISS; scientific satellites like the Hubble; Earth observation satellites from companies like Planet Labs, Umbra, and HawkEye 360; GPS; miniature CubeSats for education and research; and military/defense satellites.

Loading next visibility...
Identifier
62228, 2024-231L
Orbit
LEO
Last TLE update
21 hours ago
Origin
Manufacturer
SpaceX/Seattle
Mission
Operational Commercial Communications
Bus & Motor
STARLINK V2M, Unknown motor
Mass
730 kg wet, ~700 kg dry
Launch date (UTC)
2024-12-05 (7 months ago)
Launch vehicle
FALCON 9
Launch site
Air Force Western Test Range (AFWTR)
Object type
Payload
Rocket body
Debris
Shape & HBR
Box + 2 Pan, 29 m
Radar Cross Section
36.964 m², Large (>1 m²)

Expand to show TLE details & history

TLE from 21 hours ago
0 STARLINK-11476
1 62228U 24231L   25181.54433366  .00177784  00000-0  14376-2 0  9990
2 62228  53.1563 263.9232 0001255  69.3040 290.8112 15.69768131 33777
Epoch: 2025-06-30T13:03Z
TLE epoch observation values (Epoch: 2025-06-30T13:03:50.428Z)
Latitude
-0.00004°
Longitude
149.11044°
Altitude
360.175 km
Speed
7.695 km/s
True Right ascension
17h 35m 41s
True Declination
0° 00' 00"
Sunlit
Object was in full shadow at epoch
Visualization orbit readout
Latitude
-28.13696°
Longitude
-11.6785°
Altitude
367.795 km
Speed
7.688 km/s
Apparent Right ascension
08h 02m 47s
Apparent Declination
-35° 15' 32"
Sunlit
Object is in daylight
Visualization observer readout
Local Sidereal Time
21:28:50
Azimuth
81.511° E
Elevation
-72.377°
Doppler factor
1
Orbital elements
Apogee altitude
360.667 km
Perigee altitude
358.976 km
Semi-major axis
6,737.959 km
Eccentricity
0.00013
Inclination
53.1563°
RAAN
263.9232°
Arg. of periapsis
69.304°
True anomaly
Unknown
Mean anomaly
290.8112°
Eccentric anomaly
Unknown
Mean motion
3.9242 °/min
Orbital period
91.74 mins
BSTAR
0.0014376
Loading maneuver chart data...
Loading SW <> Apogee altitude chart data...
Loading historical data...
Loading historical data...
Loading historical data...
Loading historical data...
Loading historical data...
Loading historical data...
Loading historical data...

STARLINK-11476 Visibility forecast

Observer location: undefined°, undefined°

Span
Click to sort rows by Start time (UTC) header in descending order
Start Az.
Max El. time (UTC)
Max El. Az.
Max El.
End time (UTC)
End Az.
4 mins2025-07-01 13:58:29.661Z341.828° N2025-07-01 14:00:29.661Z34.274° NE20.911°2025-07-01 14:02:29.661Z81.522° E
4 mins2025-07-02 08:02:29.661Z241.844° WSW2025-07-02 08:04:29.661Z348.457° N41.933°2025-07-02 08:06:29.661Z42.774° NE
|